Location: Copeville
(33.0796°N, 96.4155°W)
Time: 22:04:25
(UTC+00:00)

SEEDS - Pass Details

Date: 01 April 2023
Orbit: 568 x 587 km, 97.7° (Epoch: 27 May)

Event Time Altitude Azimuth Distance (km) Brightness Sun altitude
Rises 09:25:48 0° 31° (NNE) 2,827 ? -33.9°
Reaches altitude 10° 09:28:31 10° 49° (NE) 1,921 ? -33.4°
Enters shadow 09:31:24 19° 93° (E) 1,427 ? -32.9°
Exits shadow 09:57:56 -48° 186° (S) 10,189 ? -28.1°
Maximum altitude 11:06:44 26° 288° (WNW) 1,162 ? -14.6°
